Weather History for KPIL - December, 2012

Change the Weather History Date:

Saturday, December 15, 2012

  Actual Average Record
Temperature  
Mean Temperature 78 °F -  
Max Temperature 84 °F - - ()
Min Temperature 73 °F - - ()
Cooling Degree Days 14    
Growing Degree Days 28 (Base 50)    
Moisture  
Dew Point 71 °F    
Average Humidity 80    
Maximum Humidity 90    
Minimum Humidity 61    
Precipitation  
Precipitation 0.00 in - - ()
Sea Level Pressure  
Sea Level Pressure 29.87 in    
Wind  
Wind Speed 12 mph (SSE)    
Max Wind Speed 21 mph    
Max Gust Speed 32 mph    
Visibility 7 miles    
Events      
T = Trace of Precipitation, MM = Missing Value Source: NWS Daily Summary

Daily Weather History Graph

Daily Weather History Graph

Search for Another Location

Airport or City:

Trip Planner

Search our weather history database for the weather conditions in past years. The results will help you decide how hot, cold, wet, or windy it might be!

Date:

Astronomy

Dec. 15, 2012 Rise Set
Actual Time 7:09 AM CST 5:40 PM CST
Civil Twilight 6:44 AM CST 6:05 PM CST
Nautical Twilight 6:15 AM CST 6:34 PM CST
Astronomical Twilight 5:47 AM CST 7:02 PM CST
Moon 9:12 AM CST (12/15) 8:33 PM CST (12/15)
Length of Visible Light 11h 21m
Length of Day
10h 30m
Waxing Crescent, 8% of the Moon is Illuminated
Dec 15
Waxing Crescent
Dec 19
First Quarter
Dec 28
Full
Jan 4
Last Quarter
Jan 11
New

Hourly Weather History & Observations

Time (CST) Temp. Heat Index Dew Point Humidity Pressure Visibility Wind Dir Wind Speed Gust Speed Precip Events Conditions
12:53 AM 75.9 °F - 70.0 °F 82% 29.92 in 8.0 mi South 11.5 mph - 0.00 in   Overcast
1:09 AM 75.2 °F - 69.8 °F 83% 29.91 in 8.0 mi South 9.2 mph - N/A   Overcast
1:53 AM 75.0 °F - 70.0 °F 84% 29.91 in 7.0 mi South 8.1 mph - N/A   Mostly Cloudy
2:53 AM 73.9 °F - 70.0 °F 87% 29.90 in 7.0 mi South 8.1 mph - N/A   Mostly Cloudy
3:53 AM 73.9 °F - 69.1 °F 85% 29.88 in 7.0 mi SSE 8.1 mph - N/A   Scattered Clouds
4:53 AM 73.0 °F - 69.1 °F 87% 29.87 in 7.0 mi SSE 9.2 mph - N/A   Clear
5:53 AM 73.0 °F - 70.0 °F 90% 29.87 in 7.0 mi SSE 12.7 mph - N/A   Clear
6:53 AM 73.0 °F - 70.0 °F 90% 29.88 in 7.0 mi SSE 8.1 mph - N/A   Clear
7:44 AM 73.4 °F - 69.8 °F 88% 29.90 in 5.0 mi SSE 6.9 mph - N/A   Mostly Cloudy
7:53 AM 73.0 °F - 70.0 °F 90% 29.90 in 5.0 mi SSE 8.1 mph - N/A   Mostly Cloudy
8:10 AM 73.4 °F - 69.8 °F 88% 29.89 in 4.0 mi SSE 6.9 mph - N/A   Partly Cloudy
8:53 AM 77.0 °F - 72.0 °F 84% 29.89 in 6.0 mi SSE 15.0 mph - N/A   Haze
9:29 AM 78.8 °F - 71.6 °F 78% 29.91 in 6.0 mi South 16.1 mph 25.3 mph N/A   Haze
9:53 AM 80.1 °F 83.8 °F 72.0 °F 76% 29.91 in 6.0 mi South 16.1 mph 23.0 mph N/A   Haze
10:53 AM 82.9 °F 87.0 °F 70.0 °F 65% 29.90 in 6.0 mi South 20.7 mph 28.8 mph N/A   Haze
11:53 AM 82.9 °F 87.0 °F 70.0 °F 65% 29.88 in 7.0 mi South 20.7 mph 28.8 mph N/A   Overcast
12:53 PM 84.9 °F 89.4 °F 70.0 °F 61% 29.86 in 7.0 mi South 16.1 mph 24.2 mph N/A   Mostly Cloudy
1:53 PM 84.0 °F 88.4 °F 70.0 °F 63% 29.83 in 7.0 mi South 17.3 mph 24.2 mph N/A   Mostly Cloudy
2:53 PM 82.9 °F 87.0 °F 70.0 °F 65% 29.81 in 7.0 mi South 17.3 mph - N/A   Overcast
3:05 PM 84.2 °F 88.4 °F 69.8 °F 62% 29.82 in 7.0 mi SSE 19.6 mph 24.2 mph N/A   Overcast
3:12 PM 82.4 °F 86.3 °F 69.8 °F 66% 29.81 in 7.0 mi South 19.6 mph 25.3 mph N/A   Mostly Cloudy
3:53 PM 82.0 °F 85.9 °F 70.0 °F 67% 29.82 in 7.0 mi South 16.1 mph 25.3 mph N/A   Overcast
4:48 PM 80.6 °F 83.9 °F 69.8 °F 70% 29.83 in 7.0 mi South 17.3 mph - N/A   Overcast
4:53 PM 80.1 °F 83.2 °F 70.0 °F 71% 29.83 in 7.0 mi SSE 12.7 mph 21.9 mph N/A   Overcast
5:53 PM 78.1 °F - 72.0 °F 81% 29.84 in 7.0 mi SSE 12.7 mph - N/A   Overcast
6:53 PM 77.0 °F - 72.0 °F 84% 29.86 in 7.0 mi SE 9.2 mph - N/A   Overcast
7:13 PM 77.0 °F - 71.6 °F 83% 29.85 in 7.0 mi SE 9.2 mph - N/A   Overcast
7:53 PM 77.0 °F - 72.0 °F 84% 29.87 in 7.0 mi SSE 9.2 mph - N/A   Overcast
8:09 PM 77.0 °F - 71.6 °F 83% 29.87 in 7.0 mi SSE 9.2 mph - N/A   Overcast
8:53 PM 75.9 °F - 72.0 °F 87% 29.88 in 7.0 mi SSE 8.1 mph - N/A   Overcast
9:05 PM 75.2 °F - 71.6 °F 89% 29.87 in 7.0 mi SSE 10.4 mph - N/A   Overcast
9:51 PM 75.2 °F - 71.6 °F 89% 29.87 in 7.0 mi SSE 10.4 mph - N/A   Overcast
9:53 PM 75.9 °F - 72.0 °F 87% 29.87 in 7.0 mi SSE 10.4 mph - N/A   Overcast
10:20 PM 75.2 °F - 71.6 °F 89% 29.87 in 7.0 mi SSE 10.4 mph - N/A   Overcast
10:32 PM 75.2 °F - 71.6 °F 89% 29.87 in 7.0 mi SSE 9.2 mph - N/A   Overcast
10:53 PM 75.9 °F - 72.0 °F 87% 29.87 in 7.0 mi SSE 9.2 mph - N/A   Overcast
11:13 PM 75.2 °F - 71.6 °F 89% 29.86 in 7.0 mi SSE 9.2 mph - N/A   Overcast
11:53 PM 75.9 °F - 72.0 °F 87% 29.84 in 7.0 mi SSE 10.4 mph 32.2 mph N/A   Overcast